Weather History for Sacramento, CA

Change the Weather History Date:

Monday, December 2, 2013

  Actual Average Record
Temperature  
Mean Temperature 51 °F -  
Max Temperature 65 °F 57 °F 73 °F (2011)
Min Temperature 37 °F 39 °F 28 °F (2004)
Degree Days  
Heating Degree Days 14    
Cooling Degree Days 0    
Moisture  
Dew Point 43 °F    
Average Humidity 74    
Maximum Humidity 100    
Minimum Humidity 48    
Precipitation  
Precipitation 0.00 in 0.09 in 1.91 in (1961)
Month to date precipitation 0.00 0.18  
Year to date precipitation 5.38 15.45  
Since 1 July precipitation 1.47 3.55  
Sea Level Pressure  
Sea Level Pressure 30.07 in    
Wind  
Wind Speed 2 mph (SSE)    
Max Wind Speed 14 mph    
Max Gust Speed 20 mph    
Visibility 8 miles    
Events      
T = Trace of Precipitation, MM = Missing Value Source: NWS Daily Summary

Daily Weather History Graph

Daily Weather History Graph

Search for Another Location

Airport:

Trip Planner

Search our weather history database for the weather conditions in past years. The results will help you decide how hot, cold, wet, or windy it might be!

Date:

Astronomy

Dec. 02, 2013 Rise Set
Actual Time 7:05 AM PST 4:45 PM PST
Civil Twilight 6:36 AM PST 5:14 PM PST
Nautical Twilight 6:03 AM PST 5:47 PM PST
Astronomical Twilight 5:31 AM PST 6:19 PM PST
Moon 6:37 AM PST (12/2) 4:52 PM PST (12/2)
Length of Visible Light 10h 38m
Length of Day
9h 39m
Waning Crescent, 0% of the Moon is Illuminated
Dec 2
Waning Crescent
Dec 2
New
Dec 9
First Quarter
Dec 17
Full
Dec 25
Last Quarter

Hourly Weather History & Observations

Time (PST) Temp. Windchill Dew Point Humidity Pressure Visibility Wind Dir Wind Speed Gust Speed Precip Events Conditions
12:53 AM 42.1 °F - 39.9 °F 92% 30.22 in 5.0 mi Calm Calm - N/A   Clear
1:53 AM 42.1 °F - 39.9 °F 92% 30.22 in 6.0 mi Calm Calm - N/A   Clear
2:53 AM 43.0 °F 39.5 °F 39.9 °F 89% 30.20 in 8.0 mi SE 5.8 mph - N/A   Clear
3:53 AM 45.0 °F - 41.0 °F 86% 30.18 in 10.0 mi Calm Calm - N/A   Clear
4:53 AM 39.9 °F - 37.9 °F 93% 30.15 in 6.0 mi Calm Calm - N/A   Clear
5:53 AM 37.0 °F - 36.0 °F 96% 30.15 in 5.0 mi Calm Calm - N/A   Clear
6:53 AM 37.9 °F - 37.0 °F 97% 30.17 in 6.0 mi Calm Calm - N/A   Clear
7:27 AM 37.4 °F - 35.6 °F 93% 30.17 in 2.0 mi Calm Calm - N/A   Clear
7:36 AM 37.4 °F - 37.4 °F 100% 30.16 in 5.0 mi Calm Calm - N/A   Clear
7:53 AM 39.0 °F 36.8 °F 39.0 °F 100% 30.16 in 10.0 mi SE 3.5 mph - N/A   Clear
8:53 AM 50.0 °F - 43.0 °F 77% 30.15 in 10.0 mi SSE 5.8 mph - N/A   Clear
9:53 AM 55.0 °F - 45.0 °F 69% 30.12 in 10.0 mi SSE 8.1 mph 17.3 mph N/A   Clear
10:53 AM 60.1 °F - 45.0 °F 57% 30.12 in 8.0 mi SSE 10.4 mph 16.1 mph N/A   Clear
11:53 AM 62.1 °F - 45.0 °F 53% 30.08 in 8.0 mi South 8.1 mph - N/A   Clear
12:53 PM 64.0 °F - 46.9 °F 54% 30.05 in 7.0 mi South 4.6 mph - N/A   Clear
1:53 PM 64.0 °F - 45.0 °F 50% 30.01 in 10.0 mi South 5.8 mph - N/A   Clear
2:53 PM 63.0 °F - 46.0 °F 54% 30.00 in 10.0 mi Calm Calm - N/A   Clear
3:53 PM 62.1 °F - 48.0 °F 60% 29.99 in 10.0 mi South 3.5 mph - N/A   Clear
4:53 PM 60.1 °F - 46.9 °F 62% 29.98 in 10.0 mi Calm Calm - N/A   Clear
5:53 PM 55.9 °F - 46.9 °F 72% 29.96 in 10.0 mi SSW 4.6 mph - N/A   Clear
6:53 PM 53.1 °F - 46.0 °F 77% 29.96 in 9.0 mi SSW 4.6 mph - N/A   Clear
7:53 PM 53.1 °F - 48.0 °F 83% 29.96 in 10.0 mi South 3.5 mph - N/A   Clear
8:53 PM 52.0 °F - 48.0 °F 86% 29.95 in 10.0 mi SSE 3.5 mph - N/A   Clear
9:53 PM 51.1 °F - 48.0 °F 89% 29.95 in 10.0 mi ESE 3.5 mph - N/A   Clear
10:53 PM 51.1 °F - 48.0 °F 89% 29.93 in 10.0 mi SE 5.8 mph - N/A   Clear
11:53 PM 51.1 °F - 48.0 °F 89% 29.90 in 10.0 mi SSE 5.8 mph - N/A   Clear